BAW232 EGCC-EGJJ

Flight info

Callsign BAW232
Flight time N/A
Altitude 23000
Route ASMIM DCT NOKIN P17 BEPHE/N0406F220 DCT OSSEP DCT ELNIF DCT ZESPE DCT DAWLY DCT ABBEW/N0401F210 N90 ENHEL N862 SKERY
Aircraft A320/M-SDE3FGHIRWY/LB1

Departure

Time N/A
Airport Manchester Airport (EGCC)

Arrival

Time 2026-05-05 20:10
Airport Jersey Airport (EGJJ)
Time Latitude Longitude Altitude Speed Heading
2026-05-05 19:49 49.91143 -3.04359 18360 ft 268 kts 128°
2026-05-05 19:49 49.89766 -3.01816 18015 ft 266 kts 128°
2026-05-05 19:49 49.88534 -2.99684 17454 ft 267 kts 130°
2026-05-05 19:50 49.87274 -2.97573 16895 ft 266 kts 130°
2026-05-05 19:50 49.86010 -2.95482 16384 ft 265 kts 130°
2026-05-05 19:50 49.84752 -2.93408 16045 ft 263 kts 130°
2026-05-05 19:50 49.83506 -2.91352 15786 ft 260 kts 130°
2026-05-05 19:51 49.82273 -2.89309 15485 ft 260 kts 130°
2026-05-05 19:51 49.81040 -2.87266 15204 ft 258 kts 130°
2026-05-05 19:51 49.79812 -2.85233 14909 ft 258 kts 130°
2026-05-05 19:51 49.78590 -2.83212 14637 ft 257 kts 130°
2026-05-05 19:52 49.77369 -2.81196 14352 ft 256 kts 130°
2026-05-05 19:52 49.76153 -2.79189 14079 ft 255 kts 130°
2026-05-05 19:52 49.74941 -2.77184 13814 ft 254 kts 131°
2026-05-05 19:52 49.73740 -2.75193 13525 ft 253 kts 131°
2026-05-05 19:53 49.72541 -2.73208 13200 ft 252 kts 130°
2026-05-05 19:53 49.71356 -2.71249 12893 ft 252 kts 130°
2026-05-05 19:53 49.70162 -2.69277 12604 ft 251 kts 130°
2026-05-05 19:53 49.68970 -2.67307 12298 ft 250 kts 130°
2026-05-05 19:54 49.67781 -2.65345 11992 ft 250 kts 130°
2026-05-05 19:54 49.66593 -2.63387 11700 ft 249 kts 130°
2026-05-05 19:54 49.65417 -2.61450 11352 ft 246 kts 130°
2026-05-05 19:54 49.64250 -2.59529 10862 ft 245 kts 130°
2026-05-05 19:55 49.63084 -2.57611 10380 ft 244 kts 130°
2026-05-05 19:55 49.61926 -2.55711 9925 ft 242 kts 130°
2026-05-05 19:55 49.60776 -2.53826 9415 ft 241 kts 130°
2026-05-05 19:55 49.59633 -2.51956 8925 ft 238 kts 130°
2026-05-05 19:56 49.58503 -2.50108 8436 ft 236 kts 130°
2026-05-05 19:56 49.57380 -2.48275 7946 ft 234 kts 130°
2026-05-05 19:56 49.56284 -2.46485 7489 ft 232 kts 130°
2026-05-05 19:56 49.55187 -2.44698 7288 ft 217 kts 130°
2026-05-05 19:57 49.54203 -2.43099 7153 ft 200 kts 129°
2026-05-05 19:57 49.53572 -2.42072 7064 ft 191 kts 129°
2026-05-05 19:57 49.52385 -2.40134 6674 ft 195 kts 129°
2026-05-05 19:57 49.51422 -2.38545 6161 ft 209 kts 129°
2026-05-05 19:58 49.50403 -2.36871 5639 ft 219 kts 130°
2026-05-05 19:58 49.49341 -2.35131 5122 ft 227 kts 129°
2026-05-05 19:58 49.48251 -2.33349 4761 ft 228 kts 129°
2026-05-05 19:58 49.47179 -2.31615 4634 ft 219 kts 129°
2026-05-05 19:59 49.46145 -2.29948 4505 ft 210 kts 129°
2026-05-05 19:59 49.45161 -2.28361 4408 ft 199 kts 128°
2026-05-05 19:59 49.44230 -2.26861 4254 ft 190 kts 128°
2026-05-05 19:59 49.43324 -2.25386 3867 ft 195 kts 128°
2026-05-05 20:00 49.42383 -2.23852 3479 ft 199 kts 128°
2026-05-05 20:00 49.41425 -2.22292 3104 ft 202 kts 128°
2026-05-05 20:00 49.40460 -2.20724 2719 ft 203 kts 129°
2026-05-05 20:00 49.39482 -2.19143 2330 ft 204 kts 129°
2026-05-05 20:01 49.38503 -2.17562 2008 ft 202 kts 130°
2026-05-05 20:01 49.37574 -2.16067 1982 ft 185 kts 130°
2026-05-05 20:01 49.36729 -2.14710 1978 ft 167 kts 129°
2026-05-05 20:01 49.35958 -2.13470 1974 ft 156 kts 128°
2026-05-05 20:02 49.35225 -2.12287 1977 ft 152 kts 128°
2026-05-05 20:02 49.34499 -2.11114 1980 ft 151 kts 128°
2026-05-05 20:02 49.33777 -2.09949 1982 ft 150 kts 128°
2026-05-05 20:02 49.33057 -2.08787 1982 ft 150 kts 128°
2026-05-05 20:03 49.32338 -2.07628 1985 ft 150 kts 128°
2026-05-05 20:03 49.31619 -2.06468 1984 ft 150 kts 128°
2026-05-05 20:03 49.30902 -2.05310 1984 ft 150 kts 128°
2026-05-05 20:03 49.30185 -2.04156 1980 ft 149 kts 128°
2026-05-05 20:04 49.29471 -2.03010 1982 ft 149 kts 128°
2026-05-05 20:04 49.28756 -2.01861 1986 ft 149 kts 128°
2026-05-05 20:04 49.28037 -2.00705 1987 ft 150 kts 128°
2026-05-05 20:04 49.27316 -1.99545 1989 ft 151 kts 128°
2026-05-05 20:05 49.26592 -1.98381 1987 ft 151 kts 128°
2026-05-05 20:05 49.25870 -1.97222 1985 ft 151 kts 128°
2026-05-05 20:05 49.25392 -1.96454 1985 ft 151 kts 129°
2026-05-05 20:05 49.24480 -1.95650 1969 ft 156 kts 169°
2026-05-05 20:06 49.23412 -1.95887 1980 ft 159 kts 211°
2026-05-05 20:06 49.22691 -1.97092 1983 ft 154 kts 256°
2026-05-05 20:06 49.22523 -1.98661 2015 ft 150 kts 269°
2026-05-05 20:06 49.22390 -2.00237 1992 ft 149 kts 268°
2026-05-05 20:07 49.22259 -2.01798 1989 ft 148 kts 268°
2026-05-05 20:07 49.22131 -2.03358 1986 ft 148 kts 268°
2026-05-05 20:07 49.22002 -2.04921 1968 ft 148 kts 269°
2026-05-05 20:07 49.21875 -2.06472 1855 ft 146 kts 268°
2026-05-05 20:08 49.21749 -2.08001 1694 ft 144 kts 268°
2026-05-05 20:08 49.21625 -2.09508 1506 ft 141 kts 268°
2026-05-05 20:08 49.21502 -2.10998 1321 ft 140 kts 268°
2026-05-05 20:08 49.21380 -2.12480 1116 ft 142 kts 267°
2026-05-05 20:09 49.21257 -2.13982 924 ft 144 kts 266°
2026-05-05 20:09 49.21131 -2.15499 724 ft 143 kts 267°
2026-05-05 20:09 49.21006 -2.17002 527 ft 142 kts 267°
2026-05-05 20:09 49.20882 -2.18491 352 ft 141 kts 265°
2026-05-05 20:10 49.20788 -2.19794 285 ft 64 kts 264°
2026-05-05 20:10 49.20744 -2.20067 283 ft 5 kts 226°
2026-05-05 20:10 49.20671 -2.20104 284 ft 9 kts 175°
2026-05-05 20:10 49.20661 -2.20103 284 ft 3 kts 175°
2026-05-05 20:11 49.20592 -2.20094 284 ft 15 kts 175°
2026-05-05 20:11 49.20525 -2.20028 284 ft 9 kts 114°
2026-05-05 20:11 49.20540 -2.19939 284 ft 8 kts 54°
2026-05-05 20:11 49.20594 -2.19871 284 ft 12 kts 50°
2026-05-05 20:12 49.20614 -2.19745 284 ft 9 kts 82°
2026-05-05 20:12 49.20591 -2.19658 285 ft 10 kts 166°
2026-05-05 20:12 49.20579 -2.19650 284 ft 3 kts 157°
2026-05-05 20:12 49.20564 -2.19638 284 ft 1 kts 153°
2026-05-05 20:13 49.20561 -2.19637 284 ft 0 kts 157°